Location: Centerville
(32.8776°N, 96.6203°W)
Time: 00:24:26
(UTC+00:00)

Cosmos 1844 Rocket - Pass Details

Date: 17 June 2021
Orbit: 823 x 846 km, 71.0° (Epoch: 01 August)

Event Time Altitude Azimuth Distance (km) Brightness Sun altitude
Rises 03:25:19 0° 353° (N) 3,406 6.7 -18.9°
Reaches altitude 10° 03:28:16 10° 8° (N) 2,470 5.6 -19.4°
Maximum altitude 03:32:46 24° 60° (ENE) 1,695 4.1 -20.0°
Enters shadow 03:34:21 21° 85° (E) 1,809 4.1 -20.2°
